Chehalis, WA

5:56 PM PST on February 06, 2016 (GMT -0800)
Chehalis-Centralia

Weather History for KCLS - March, 2013

Change the Weather History Date:

Friday, March 8, 2013

  Actual Average (KOLM) Record (KOLM)
Temperature  
Mean Temperature 43 °F 43 °F  
Max Temperature 51 °F 53 °F 70 °F (2004)
Min Temperature 35 °F 34 °F 24 °F (1963)
Degree Days  
Heating Degree Days 22 22  
Month to date heating degree days 177  
Since 1 July heating degree days 3899  
Cooling Degree Days 0 0  
Month to date cooling degree days 0  
Year to date cooling degree days 0  
Moisture  
Dew Point 38 °F    
Average Humidity 86    
Maximum Humidity 100    
Minimum Humidity 62    
Precipitation  
Precipitation 0.00 in 0.17 in 1.77 in (2014)
Month to date precipitation 1.45  
Year to date precipitation 14.56  
Sea Level Pressure  
Sea Level Pressure 30.14 in    
Wind  
Wind Speed 3 mph (North)    
Max Wind Speed 14 mph    
Max Gust Speed 17 mph    
Visibility 6 miles    
Events Fog    
T = Trace of Precipitation, MM = Missing Value Source: NWS Daily Summary

Daily Weather History Graph

Daily Weather History Graph

Search for Another Location

Airport or City:

Trip Planner

Search our weather history database for the weather conditions in past years. The results will help you decide how hot, cold, wet, or windy it might be!

Date:

Astronomy

Mar. 08, 2013 Rise Set
Actual Time 6:37 AM PST 6:08 PM PST
Civil Twilight 6:07 AM PST 6:38 PM PST
Nautical Twilight 5:32 AM PST 7:13 PM PST
Astronomical Twilight 4:57 AM PST 7:49 PM PST
Moon 4:35 AM PST (3/8) 3:01 PM PST (3/8)
Length of Visible Light 12h 31m
Length of Day
11h 30m
Waning Crescent, 11% of the Moon is Illuminated
Mar 8
Waning Crescent
Mar 11
New
Mar 19
First Quarter
Mar 27
Full
Apr 2
Last Quarter

Hourly Weather History & Observations

Time (PST) Temp. Windchill Dew Point Humidity Pressure Visibility Wind Dir Wind Speed Gust Speed Precip Events Conditions
12:15 AM 35.6 °F - 35.6 °F 100% 30.09 in 0.2 mi Calm Calm - N/A Fog Fog
12:35 AM 35.6 °F - 35.6 °F 100% 30.10 in 0.2 mi Calm Calm - N/A Fog Fog
12:55 AM 35.6 °F - 35.6 °F 100% 30.10 in 0.2 mi Calm Calm - N/A Fog Fog
1:15 AM 35.6 °F - 35.6 °F 100% 30.10 in 0.2 mi Calm Calm - N/A Fog Fog
1:35 AM 35.6 °F - 35.6 °F 100% 30.10 in 0.2 mi Calm Calm - N/A Fog Fog
1:55 AM 35.6 °F - 35.6 °F 100% 30.10 in 0.2 mi Calm Calm - N/A Fog Fog
2:15 AM 35.6 °F - 35.6 °F 100% 30.10 in 0.2 mi Calm Calm - N/A Fog Fog
2:35 AM 35.6 °F - 35.6 °F 100% 30.09 in 0.2 mi Calm Calm - N/A Fog Fog
2:55 AM 35.6 °F - 35.6 °F 100% 30.10 in 0.2 mi Calm Calm - N/A Fog Fog
3:15 AM 35.6 °F - 35.6 °F 100% 30.10 in 0.2 mi Calm Calm - N/A Fog Fog
3:35 AM 35.6 °F - 35.6 °F 100% 30.10 in 0.2 mi Calm Calm - N/A Fog Fog
3:55 AM 35.6 °F - 35.6 °F 100% 30.09 in 0.2 mi Calm Calm - N/A Fog Fog
4:15 AM 35.6 °F - 35.6 °F 100% 30.10 in 0.2 mi Calm Calm - N/A Fog Fog
4:35 AM 35.6 °F - 35.6 °F 100% 30.10 in 0.2 mi Calm Calm - N/A Fog Fog
4:55 AM 35.6 °F - 35.6 °F 100% 30.10 in 0.2 mi Calm Calm - N/A Fog Fog
5:15 AM 37.4 °F - 37.4 °F 100% 30.10 in 0.5 mi Calm Calm - N/A Fog Fog
5:35 AM 37.4 °F - 37.4 °F 100% 30.10 in 0.8 mi Calm Calm - N/A   Overcast
5:55 AM 37.4 °F - 37.4 °F 100% 30.10 in 5.0 mi Calm Calm - N/A   Overcast
6:15 AM 37.4 °F 33.8 °F 37.4 °F 100% 30.11 in 5.0 mi South 4.6 mph - N/A   Overcast
6:35 AM 37.4 °F 34.9 °F 37.4 °F 100% 30.11 in 8.0 mi South 3.5 mph - N/A   Overcast
6:55 AM 37.4 °F - 37.4 °F 100% 30.11 in 5.0 mi Calm Calm - N/A   Overcast
7:15 AM 37.4 °F 34.9 °F 37.4 °F 100% 30.11 in 2.5 mi SSW 3.5 mph - N/A   Overcast
7:35 AM 37.4 °F - 37.4 °F 100% 30.11 in 1.0 mi Calm Calm - N/A   Overcast
8:15 AM 39.2 °F - 37.4 °F 93% 30.11 in 1.2 mi Calm Calm - N/A   Overcast
8:35 AM 39.2 °F - 39.2 °F 100% 30.12 in 4.0 mi Calm Calm - N/A   Overcast
9:15 AM 41.0 °F 38.0 °F 39.2 °F 93% 30.13 in 3.0 mi North 4.6 mph - N/A   Mostly Cloudy
9:35 AM 41.0 °F 34.3 °F 39.2 °F 93% 30.13 in 7.0 mi NNE 11.5 mph - N/A   Overcast
9:55 AM 41.0 °F 35.2 °F 39.2 °F 93% 30.14 in 9.0 mi North 9.2 mph - N/A   Overcast
10:15 AM 44.6 °F 40.2 °F 39.2 °F 81% 30.14 in 10.0 mi NNE 8.1 mph - N/A   Overcast
10:35 AM 44.6 °F 40.7 °F 39.2 °F 81% 30.13 in 10.0 mi North 6.9 mph - N/A   Overcast
10:55 AM 46.4 °F 41.9 °F 39.2 °F 76% 30.13 in 10.0 mi North 9.2 mph - N/A   Overcast
11:15 AM 46.4 °F 41.5 °F 39.2 °F 76% 30.13 in 10.0 mi NNE 10.4 mph - N/A   Overcast
11:35 AM 48.2 °F - 39.2 °F 71% 30.13 in 10.0 mi NNE 12.7 mph 16.1 mph N/A   Mostly Cloudy
11:55 AM 48.2 °F - 39.2 °F 71% 30.13 in 10.0 mi NNE 13.8 mph - N/A   Scattered Clouds
12:15 PM 48.2 °F - 39.2 °F 71% 30.13 in 10.0 mi NNE 10.4 mph 17.3 mph N/A   Mostly Cloudy
12:35 PM 48.2 °F - 39.2 °F 71% 30.13 in 10.0 mi North 9.2 mph - N/A   Mostly Cloudy
12:55 PM 48.2 °F - 39.2 °F 71% 30.13 in 10.0 mi NNW 8.1 mph - N/A   Overcast
1:15 PM 48.2 °F - 39.2 °F 71% 30.12 in 10.0 mi North 5.8 mph 16.1 mph N/A   Mostly Cloudy
1:35 PM 50.0 °F - 39.2 °F 66% 30.12 in 10.0 mi North 5.8 mph - N/A   Scattered Clouds
1:55 PM 50.0 °F - 39.2 °F 66% 30.12 in 10.0 mi North 8.1 mph - N/A   Partly Cloudy
2:15 PM 50.0 °F - 41.0 °F 71% 30.12 in 10.0 mi North 8.1 mph - N/A   Partly Cloudy
2:35 PM 50.0 °F - 39.2 °F 66% 30.12 in 10.0 mi NNW 10.4 mph - N/A   Clear
2:55 PM 50.0 °F - 39.2 °F 66% 30.12 in 8.0 mi North 8.1 mph - N/A   Clear
3:15 PM 51.8 °F - 39.2 °F 62% 30.12 in 10.0 mi North 5.8 mph - N/A   Clear
3:35 PM 51.8 °F - 39.2 °F 62% 30.12 in 10.0 mi NNW 6.9 mph - N/A   Clear
3:55 PM 51.8 °F - 39.2 °F 62% 30.12 in 10.0 mi NNW 8.1 mph - N/A   Clear
4:15 PM 51.8 °F - 41.0 °F 67% 30.12 in 10.0 mi NNW 8.1 mph - N/A   Clear
4:35 PM 51.8 °F - 39.2 °F 62% 30.12 in 10.0 mi NNW 6.9 mph - N/A   Clear
4:55 PM 51.8 °F - 39.2 °F 62% 30.12 in 10.0 mi NNW 8.1 mph - N/A   Clear
5:15 PM 51.8 °F - 39.2 °F 62% 30.13 in 10.0 mi NNW 6.9 mph - N/A   Clear
5:35 PM 50.0 °F - 39.2 °F 66% 30.13 in 10.0 mi NNW 4.6 mph - N/A   Clear
5:55 PM 48.2 °F - 41.0 °F 76% 30.13 in 10.0 mi NNW 4.6 mph - N/A   Clear
6:15 PM 46.4 °F 45.2 °F 39.2 °F 76% 30.15 in 10.0 mi NW 3.5 mph - N/A   Clear
6:35 PM 46.4 °F 45.2 °F 39.2 °F 76% 30.15 in 10.0 mi NNW 3.5 mph - N/A   Clear
6:55 PM 44.6 °F 43.1 °F 39.2 °F 81% 30.16 in 10.0 mi NNW 3.5 mph - N/A   Clear
7:15 PM 44.6 °F 43.1 °F 39.2 °F 81% 30.17 in 9.0 mi NNE 3.5 mph - N/A   Clear
7:35 PM 41.0 °F 38.0 °F 37.4 °F 87% 30.18 in 9.0 mi NE 4.6 mph - N/A   Clear
7:55 PM 41.0 °F 39.0 °F 37.4 °F 87% 30.19 in 10.0 mi ENE 3.5 mph - N/A   Clear
8:15 PM 41.0 °F 39.0 °F 37.4 °F 87% 30.20 in 10.0 mi NE 3.5 mph - N/A   Clear
8:35 PM 39.2 °F - 37.4 °F 93% 30.21 in 10.0 mi Calm Calm - N/A   Clear
8:55 PM 39.2 °F - 37.4 °F 93% 30.21 in 10.0 mi Calm Calm - N/A   Clear
9:15 PM 39.2 °F - 37.4 °F 93% 30.22 in 10.0 mi Calm Calm - N/A   Clear
9:35 PM 37.4 °F - 37.4 °F 100% 30.23 in 10.0 mi Calm Calm - N/A   Clear
9:55 PM 37.4 °F - 35.6 °F 93% 30.23 in 10.0 mi Calm Calm - N/A   Clear
10:15 PM 37.4 °F - 35.6 °F 93% 30.24 in 10.0 mi Calm Calm - N/A   Clear
10:35 PM 35.6 °F - 35.6 °F 100% 30.24 in 10.0 mi Calm Calm - N/A   Clear
10:55 PM 35.6 °F - 35.6 °F 100% 30.24 in 5.0 mi Calm Calm - N/A   Clear
11:15 PM 35.6 °F - 35.6 °F 100% 30.24 in 2.5 mi Calm Calm - N/A   Clear
11:35 PM 35.6 °F - 33.8 °F 93% 30.25 in 0.5 mi Calm Calm - N/A Fog Fog
11:55 PM 35.6 °F - 33.8 °F 93% 30.25 in 0.2 mi Calm Calm - N/A Fog Fog